Location: Ostrava
(49.8330°N, 18.2830°E)
Time: 00:04:06
(UTC+02:00)

Envisat - Pass Details

Date: 19 January 2022
Orbit: 764 x 765 km, 98.2° (Epoch: 21 May)

Event Time Altitude Azimuth Distance (km) Brightness Sun altitude
Rises 06:15:18 0° 4° (N) 3,243 6.1 -12.6°
Reaches altitude 10° 06:18:03 10° 350° (N) 2,312 5.2 -12.2°
Maximum altitude 06:21:53 22° 301° (WNW) 1,628 4.1 -11.6°
Drops below altitude 10° 06:25:42 10° 252° (WSW) 2,301 5.0 -11.0°
Sets 06:28:27 0° 237° (WSW) 3,223 5.9 -10.6°
